Weather History for Corsicana, TX

Change the Weather History Date:

Sunday, May 19, 2013

  Actual Average (KACT) Record (KACT)
Temperature  
Mean Temperature 80 °F 75 °F  
Max Temperature 91 °F 86 °F 95 °F (1956)
Min Temperature 71 °F 65 °F 47 °F (2002)
Degree Days  
Heating Degree Days 0 0  
Month to date heating degree days 4  
Since 1 July heating degree days 2140  
Cooling Degree Days 16 10  
Month to date cooling degree days 154  
Year to date cooling degree days 308  
Growing Degree Days 30 (Base 50)    
Moisture  
Dew Point 67 °F    
Average Humidity 67    
Maximum Humidity 87    
Minimum Humidity 48    
Precipitation  
Precipitation 0.00 in 0.13 in 2.16 in (1975)
Month to date precipitation 2.60  
Year to date precipitation 13.19  
Sea Level Pressure  
Sea Level Pressure 29.81 in    
Wind  
Wind Speed 14 mph (South)    
Max Wind Speed 23 mph    
Max Gust Speed 31 mph    
Visibility 8 miles    
Events      
T = Trace of Precipitation, MM = Missing Value Source: NWS Daily Summary

Daily Weather History Graph

Daily Weather History Graph

Search for Another Location

Airport:

Trip Planner

Search our weather history database for the weather conditions in past years. The results will help you decide how hot, cold, wet, or windy it might be!

Date:

Astronomy

May. 19, 2013 Rise Set
Actual Time 6:25 AM CDT 8:19 PM CDT
Civil Twilight 5:58 AM CDT 8:46 PM CDT
Nautical Twilight 5:25 AM CDT 9:19 PM CDT
Astronomical Twilight 4:50 AM CDT 9:54 PM CDT
Moon 2:44 PM CDT (5/19) 2:28 AM CDT (5/19)
Length of Visible Light 14h 47m
Length of Day
13h 53m
Waxing Gibbous, 65% of the Moon is Illuminated
May 19
Waxing Gibbous
May 24
Full
May 31
Last Quarter
Jun 8
New
Jun 16
First Quarter

Hourly Weather History & Observations

Time (CDT) Temp. Heat Index Dew Point Humidity Pressure Visibility Wind Dir Wind Speed Gust Speed Precip Events Conditions
12:53 AM 75.9 °F - 66.9 °F 74% 29.84 in 9.0 mi SSE 10.4 mph - N/A   Clear
1:53 AM 75.0 °F - 66.0 °F 73% 29.84 in 9.0 mi South 12.7 mph - N/A   Clear
2:53 AM 73.9 °F - 64.9 °F 73% 29.83 in 9.0 mi South 10.4 mph - N/A   Clear
3:53 AM 73.0 °F - 64.9 °F 76% 29.83 in 9.0 mi South 12.7 mph 24.2 mph N/A   Clear
4:51 AM 71.6 °F - 66.2 °F 83% 29.85 in 7.0 mi South 10.4 mph - N/A   Mostly Cloudy
4:53 AM 71.1 °F - 66.0 °F 84% 29.84 in 7.0 mi South 12.7 mph - N/A   Mostly Cloudy
5:53 AM 71.1 °F - 66.9 °F 87% 29.82 in 7.0 mi South 15.0 mph - N/A   Mostly Cloudy
6:01 AM 71.6 °F - 66.2 °F 83% 29.83 in 7.0 mi South 15.0 mph - N/A   Scattered Clouds
6:42 AM 71.6 °F - 66.2 °F 83% 29.84 in 6.0 mi South 16.1 mph - N/A   Haze
7:53 AM 73.9 °F - 66.9 °F 79% 29.85 in 7.0 mi South 15.0 mph - N/A   Overcast
8:53 AM 75.9 °F - 66.9 °F 74% 29.86 in 7.0 mi South 12.7 mph 25.3 mph N/A   Overcast
9:53 AM 77.0 °F - 66.9 °F 71% 29.87 in 7.0 mi South 15.0 mph - N/A   Mostly Cloudy
10:53 AM 81.0 °F 83.8 °F 68.0 °F 65% 29.86 in 7.0 mi South 19.6 mph 25.3 mph N/A   Mostly Cloudy
11:21 AM 82.4 °F 85.4 °F 68.0 °F 62% 29.87 in 7.0 mi South 19.6 mph 26.5 mph N/A   Scattered Clouds
11:53 AM 82.0 °F 85.5 °F 69.1 °F 65% 29.84 in 6.0 mi South 17.3 mph 24.2 mph N/A   Haze
12:53 PM 87.1 °F 92.0 °F 70.0 °F 57% 29.82 in 7.0 mi South 16.1 mph - N/A   Clear
2:53 PM 89.1 °F 94.1 °F 70.0 °F 53% 29.76 in 7.0 mi South 21.9 mph 29.9 mph N/A   Clear
3:53 PM 90.0 °F 93.6 °F 68.0 °F 48% 29.74 in 9.0 mi South 23.0 mph 31.1 mph N/A   Clear
4:53 PM 90.0 °F 93.6 °F 68.0 °F 48% 29.73 in 10.0 mi South 21.9 mph 27.6 mph N/A   Clear
5:53 PM 90.0 °F 93.6 °F 68.0 °F 48% 29.73 in 9.0 mi South 19.6 mph 24.2 mph N/A   Clear
6:53 PM 88.0 °F 91.4 °F 68.0 °F 51% 29.72 in 9.0 mi South 16.1 mph 24.2 mph N/A   Clear
7:53 PM 84.9 °F 87.6 °F 66.9 °F 55% 29.75 in 9.0 mi South 15.0 mph - N/A   Clear
8:53 PM 82.9 °F 85.4 °F 66.9 °F 58% 29.76 in 10.0 mi South 15.0 mph - N/A   Clear
9:53 PM 82.0 °F 84.9 °F 68.0 °F 62% 29.78 in 10.0 mi SSE 21.9 mph 27.6 mph N/A   Clear
11:53 PM 78.1 °F - 66.9 °F 68% 29.81 in 10.0 mi SSE 18.4 mph 25.3 mph N/A   Clear